Time,TemperatureF,DewpointF,PressureIn,WindDirection,WindDirectionDegrees,WindSpeedMPH,WindSpeedGustMPH,Humidity,HourlyPrecipIn,Conditions,Clouds,dailyrainin,SoftwareType,DateUTC
2013-06-30 00:07:00,54.1,50.7,30.11,NW,315,0.8,8.0,88,0.02,,,-99.99,open3600,2013-06-29 22:07:00,
2013-06-30 00:24:00,53.2,49.8,30.11,North,0,0.7,0.0,88,0.02,,,-99.99,open3600,2013-06-29 22:24:00,
2013-06-30 00:40:00,52.5,49.1,30.11,North,0,0.9,0.0,88,0.00,,,-99.99,open3600,2013-06-29 22:40:00,
2013-06-30 00:56:00,51.6,47.8,30.12,NW,315,1.6,0.0,87,0.00,,,-99.99,open3600,2013-06-29 22:56:00,
2013-06-30 01:11:00,51.1,47.3,30.12,NW,315,0.9,0.0,87,0.00,,,-99.99,open3600,2013-06-29 23:11:00,
2013-06-30 01:27:00,51.1,47.3,30.13,NW,315,0.9,0.0,87,0.00,,,-99.99,open3600,2013-06-29 23:27:00,
2013-06-30 01:42:00,50.9,47.1,30.13,NNW,338,0.0,0.0,87,0.00,,,-99.99,open3600,2013-06-29 23:42:00,
2013-06-30 01:58:00,50.7,46.9,30.13,NW,315,0.6,0.0,87,0.00,,,-99.99,open3600,2013-06-29 23:58:00,
2013-06-30 02:14:00,50.7,46.9,30.13,NW,315,0.1,0.0,87,0.00,,,-99.99,open3600,2013-06-30 00:14:00,
2013-06-30 02:29:00,50.7,46.9,30.14,NW,315,0.0,0.0,87,0.00,,,-99.99,open3600,2013-06-30 00:29:00,
2013-06-30 02:45:00,50.5,46.8,30.14,NW,315,0.1,0.0,87,0.00,,,-99.99,open3600,2013-06-30 00:45:00,
2013-06-30 03:00:00,50.2,46.2,30.14,WNW,292,0.6,0.0,86,0.00,,,-99.99,open3600,2013-06-30 01:00:00,
2013-06-30 03:16:00,49.8,45.9,30.14,NW,315,0.0,0.0,86,0.00,,,-99.99,open3600,2013-06-30 01:16:00,
2013-06-30 03:32:00,49.6,45.7,30.14,NNW,338,0.1,0.0,86,0.00,,,-99.99,open3600,2013-06-30 01:32:00,
2013-06-30 03:48:00,49.5,45.1,30.14,NNW,338,0.8,0.0,85,0.00,,,-99.99,open3600,2013-06-30 01:48:00,
2013-06-30 04:04:00,49.1,44.4,30.14,NNW,338,0.0,0.0,84,0.00,,,-99.99,open3600,2013-06-30 02:04:00,
2013-06-30 04:19:00,48.7,44.1,30.15,WNW,292,1.4,0.0,84,0.00,,,-99.99,open3600,2013-06-30 02:19:00,
2013-06-30 04:35:00,48.4,43.7,30.15,NW,315,0.6,0.0,84,0.00,,,-99.99,open3600,2013-06-30 02:35:00,
2013-06-30 04:52:00,48.0,43.2,30.15,NW,315,0.6,-999.0,83,-99.99,,,-99.99,open3600,2013-06-30 02:52:00,
2013-06-30 05:08:00,47.5,42.6,30.16,West,270,0.0,0.0,83,-99.99,,,-99.99,open3600,2013-06-30 03:08:00,
2013-06-30 05:24:00,47.1,42.3,30.16,NW,315,0.2,0.0,83,-99.99,,,-99.99,open3600,2013-06-30 03:24:00,
2013-06-30 05:39:00,46.8,41.9,30.17,NW,315,0.0,0.0,83,-99.99,,,-99.99,open3600,2013-06-30 03:39:00,
2013-06-30 05:55:00,46.9,42.1,30.17,NW,315,0.0,0.0,83,0.00,,,-99.99,open3600,2013-06-30 03:55:00,
2013-06-30 06:11:00,46.9,42.1,30.17,WNW,292,0.3,0.0,83,0.00,,,-99.99,open3600,2013-06-30 04:11:00,
2013-06-30 06:27:00,47.1,42.3,30.17,NW,315,0.5,0.0,83,0.00,,,-99.99,open3600,2013-06-30 04:27:00,
2013-06-30 06:42:00,47.3,42.1,30.17,West,270,0.9,0.0,82,0.00,,,-99.99,open3600,2013-06-30 04:42:00,
2013-06-30 06:58:00,47.5,42.3,30.17,NNW,338,1.8,0.0,82,0.00,,,-99.99,open3600,2013-06-30 04:58:00,
2013-06-30 07:13:00,47.8,43.0,30.18,WNW,292,0.0,0.0,83,0.00,,,-99.99,open3600,2013-06-30 05:13:00,
2013-06-30 07:46:00,48.4,43.2,30.18,WNW,292,0.0,0.0,82,0.00,,,-99.99,open3600,2013-06-30 05:46:00,
2013-06-30 08:02:00,48.9,43.7,30.17,NNW,338,0.0,0.0,82,0.00,,,-99.99,open3600,2013-06-30 06:02:00,
2013-06-30 08:18:00,49.5,43.5,30.18,WNW,292,0.5,0.0,80,0.00,,,-99.99,open3600,2013-06-30 06:18:00,
2013-06-30 08:33:00,50.0,43.7,30.17,NNW,338,0.1,0.0,79,0.00,,,-99.99,open3600,2013-06-30 06:33:00,
2013-06-30 08:49:00,50.5,43.3,30.18,WNW,292,2.8,8.0,76,0.00,,,-99.99,open3600,2013-06-30 06:49:00,
2013-06-30 09:06:00,50.5,43.3,30.18,SW,225,1.1,0.0,76,0.00,,,-99.99,open3600,2013-06-30 07:06:00,
2013-06-30 09:22:00,50.7,43.2,30.19,NNW,338,1.1,0.0,75,0.00,,,-99.99,open3600,2013-06-30 07:22:00,
2013-06-30 09:37:00,51.4,43.9,30.19,West,270,0.7,0.0,75,0.00,,,-99.99,open3600,2013-06-30 07:37:00,
2013-06-30 09:53:00,51.4,43.2,30.19,NW,315,0.3,0.0,73,0.00,,,-99.99,open3600,2013-06-30 07:53:00,
2013-06-30 10:26:00,52.3,43.2,30.20,NW,315,1.8,0.0,71,-99.99,,,-99.99,open3600,2013-06-30 08:26:00,
2013-06-30 10:42:00,52.3,42.8,30.20,NNW,338,1.1,0.0,70,-99.99,,,-99.99,open3600,2013-06-30 08:42:00,
2013-06-30 10:57:00,52.9,43.3,30.20,North,0,2.8,8.0,70,-99.99,,,-99.99,open3600,2013-06-30 08:57:00,
2013-06-30 11:13:00,53.8,44.2,30.20,West,270,0.4,0.0,70,0.00,,,-99.99,open3600,2013-06-30 09:13:00,
2013-06-30 11:28:00,54.7,44.4,30.20,NNW,338,0.8,0.0,68,0.00,,,-99.99,open3600,2013-06-30 09:28:00,
2013-06-30 11:44:00,54.9,44.1,30.20,West,270,0.0,0.0,67,0.00,,,-99.99,open3600,2013-06-30 09:44:00,
2013-06-30 12:01:00,55.6,45.1,30.20,NNW,338,0.0,0.0,68,0.00,,,-99.99,open3600,2013-06-30 10:01:00,
2013-06-30 12:17:00,57.2,45.5,30.20,NW,315,1.0,0.0,65,0.00,,,-99.99,open3600,2013-06-30 10:17:00,
2013-06-30 12:33:00,57.7,47.3,30.19,North,0,0.9,0.0,68,0.00,,,-99.99,open3600,2013-06-30 10:33:00,
2013-06-30 12:48:00,57.6,45.9,30.19,NW,315,1.4,0.0,65,0.00,,,-99.99,open3600,2013-06-30 10:48:00,
2013-06-30 13:04:00,58.6,45.7,30.19,WNW,292,0.3,0.0,62,0.00,,,-99.99,open3600,2013-06-30 11:04:00,
2013-06-30 13:19:00,59.0,46.4,30.18,NW,315,1.5,7.0,63,0.00,,,-99.99,open3600,2013-06-30 11:19:00,
2013-06-30 13:36:00,59.0,46.4,30.18,SSW,202,0.2,0.0,63,0.00,,,-99.99,open3600,2013-06-30 11:36:00,
2013-06-30 13:51:00,58.8,45.9,30.18,WNW,292,0.5,0.0,62,0.00,,,-99.99,open3600,2013-06-30 11:51:00,
2013-06-30 14:07:00,58.5,45.9,30.18,WNW,292,0.3,0.0,63,0.00,,,-99.99,open3600,2013-06-30 12:07:00,
2013-06-30 14:23:00,59.0,46.4,30.18,NW,315,0.9,0.0,63,0.00,,,-99.99,open3600,2013-06-30 12:23:00,
2013-06-30 14:39:00,59.4,45.0,30.18,NW,315,0.9,7.0,59,0.00,,,-99.99,open3600,2013-06-30 12:39:00,
2013-06-30 14:54:00,59.4,45.0,30.17,SW,225,0.2,0.0,59,0.00,,,-99.99,open3600,2013-06-30 12:54:00,
2013-06-30 15:10:00,60.1,46.2,30.17,NNW,338,1.1,0.0,60,0.00,,,-99.99,open3600,2013-06-30 13:10:00,
2013-06-30 15:25:00,60.6,46.2,30.17,WNW,292,0.2,0.0,59,0.00,,,-99.99,open3600,2013-06-30 13:25:00,
2013-06-30 15:41:00,61.0,46.0,30.17,WNW,292,0.5,0.0,58,0.00,,,-99.99,open3600,2013-06-30 13:41:00,
2013-06-30 15:57:00,61.5,46.2,30.16,WNW,292,1.7,0.0,57,0.00,,,-99.99,open3600,2013-06-30 13:57:00,
2013-06-30 16:12:00,61.7,47.3,30.16,WNW,292,1.2,0.0,59,0.00,,,-99.99,open3600,2013-06-30 14:12:00,
2013-06-30 16:28:00,61.3,46.4,30.16,WSW,248,0.6,0.0,58,0.00,,,-99.99,open3600,2013-06-30 14:28:00,
2013-06-30 16:45:00,61.5,46.6,30.16,West,270,0.8,6.0,58,0.00,,,-99.99,open3600,2013-06-30 14:45:00,
2013-06-30 17:01:00,61.0,46.9,30.15,West,270,0.7,0.0,60,0.00,,,-99.99,open3600,2013-06-30 15:01:00,
2013-06-30 17:17:00,61.2,46.8,30.15,North,0,1.7,10.0,59,0.00,,,-99.99,open3600,2013-06-30 15:17:00,
2013-06-30 17:32:00,61.3,47.3,30.14,WNW,292,0.6,0.0,60,0.00,,,-99.99,open3600,2013-06-30 15:32:00,
2013-06-30 17:48:00,60.8,46.4,30.14,West,270,0.3,0.0,59,0.00,,,-99.99,open3600,2013-06-30 15:48:00,
2013-06-30 18:21:00,60.6,46.2,30.14,WNW,292,1.3,0.0,59,0.00,,,-99.99,open3600,2013-06-30 16:21:00,
2013-06-30 18:37:00,60.4,46.6,30.14,WNW,292,0.0,0.0,60,0.00,,,-99.99,open3600,2013-06-30 16:37:00,
2013-06-30 18:53:00,60.4,46.6,30.14,WNW,292,1.3,8.0,60,0.00,,,-99.99,open3600,2013-06-30 16:53:00,
2013-06-30 19:08:00,59.7,46.2,30.14,WNW,292,0.4,0.0,61,0.00,,,-99.99,open3600,2013-06-30 17:08:00,
2013-06-30 19:24:00,59.0,46.4,30.14,WSW,248,0.4,0.0,63,0.00,,,-99.99,open3600,2013-06-30 17:24:00,
2013-06-30 19:40:00,58.8,47.1,30.14,West,270,0.0,0.0,65,0.00,,,-99.99,open3600,2013-06-30 17:40:00,
2013-06-30 19:55:00,58.5,46.8,30.14,WNW,292,0.0,0.0,65,0.00,,,-99.99,open3600,2013-06-30 17:55:00,
2013-06-30 20:11:00,57.9,47.5,30.14,WNW,292,0.0,0.0,68,0.00,,,-99.99,open3600,2013-06-30 18:11:00,
2013-06-30 20:26:00,57.6,47.5,30.14,WNW,292,0.0,0.0,69,0.00,,,-99.99,open3600,2013-06-30 18:26:00,
2013-06-30 20:42:00,56.8,47.1,30.14,WNW,292,0.0,0.0,70,0.00,,,-99.99,open3600,2013-06-30 18:42:00,
2013-06-30 21:08:00,55.8,47.7,30.14,WNW,292,0.0,0.0,74,0.00,,,-99.99,open3600,2013-06-30 19:08:00,
2013-06-30 21:23:00,55.0,48.0,30.14,WNW,292,0.0,0.0,77,0.00,,,-99.99,open3600,2013-06-30 19:23:00,
2013-06-30 21:39:00,54.1,47.5,30.15,WNW,292,0.0,0.0,78,0.00,,,-99.99,open3600,2013-06-30 19:39:00,
2013-06-30 21:54:00,53.8,47.1,30.15,WNW,292,0.0,0.0,78,0.00,,,-99.99,open3600,2013-06-30 19:54:00,
2013-06-30 22:12:00,53.2,46.9,30.15,WNW,292,0.0,0.0,79,0.00,,,-99.99,open3600,2013-06-30 20:12:00,
2013-06-30 22:27:00,53.2,47.3,30.15,WNW,292,0.0,0.0,80,0.00,,,-99.99,open3600,2013-06-30 20:27:00,
2013-06-30 22:43:00,53.2,47.5,30.15,WNW,292,0.0,0.0,81,0.00,,,-99.99,open3600,2013-06-30 20:43:00,
2013-06-30 22:58:00,53.4,47.7,30.15,WNW,292,0.0,0.0,81,0.00,,,-99.99,open3600,2013-06-30 20:58:00,
2013-06-30 23:14:00,53.4,47.5,30.15,WNW,292,0.0,0.0,80,0.00,,,-99.99,open3600,2013-06-30 21:14:00,
2013-06-30 23:30:00,53.6,47.8,30.15,WNW,292,0.0,0.0,81,0.00,,,-99.99,open3600,2013-06-30 21:30:00,